STARLINK-5862, 55920

Orbit data source: Space-Track

STARLINK-5862, 55920 is a payload satellite owned by SpaceX/Seattle (US) in LEO that was launched on Fri, 17 Mar 2023 UTC via an FALCON 9 launch vehicle from the Air Force Western Test Range (AFWTR). Payload-class satellites include a variety of spacecraft equipped with specific instruments for various scientific and technological missions. These include communications satellites like Starlink; space stations such as the ISS; scientific satellites like the Hubble; Earth observation satellites from companies like Planet Labs, Umbra, and HawkEye 360; GPS; miniature CubeSats for education and research; and military/defense satellites.

Loading next visibility...
Identifier
55920, 2023-037G
Orbit
LEO
Country
Flag of USUS
Related business
Manufacturer
SpaceX/Seattle
Mission
Operational Commercial Communications
Bus & Motor
STARLINK, Unknown motor
Mass
305 kg wet, ~290 kg dry
Launch date (UTC)
2023-03-17 (3 years ago)
Launch vehicle
FALCON 9
Launch site
Air Force Western Test Range (AFWTR)
Object type
Payload
Rocket body
Debris
Shape & HBR
Box + 1 Pan, 10.1 m
Radar Cross Section
11.087 m², Large (>1 m²)

Expand to show TLE details & history
Last TLE update: 18 hours ago

TLE from 18 hours ago
0 STARLINK-5862
1 55920U 23037G   25349.82786948  .00000539  00000-0  52935-4 0  9996
2 55920  69.9996 136.0976 0003248 269.2571  90.8216 14.98330584151415
Epoch: 2025-12-15T19:52Z
TLE epoch observation values (Epoch: 2025-12-15T19:52:07.923Z)
Latitude
0.00001°
Longitude
113.34375°
Altitude
574.511 km
Speed
7.574 km/s
True Right ascension
09h 04m 23s
True Declination
0° 00' 00"
Sunlit
Object was in full shadow at epoch
Visualization orbit readout
Latitude
Unknown
Longitude
Unknown
Altitude
Unknown
Speed
Unknown
Apparent Right ascension
Unknown
Apparent Declination
Unknown
Sunlit
N/A
Visualization observer readout
Local Sidereal Time
12:48:31
Azimuth
Unknown
Elevation
Unknown
Doppler factor
Unknown
Orbital elements
Apogee altitude
572.259 km
Perigee altitude
567.746 km
Semi-major axis
6,948.139 km
Eccentricity
0.00032
Inclination
69.9996°
RAAN
136.0976°
Arg. of periapsis
269.2571°
True anomaly
90.85882°
Mean anomaly
90.8216°
Eccentric anomaly
90.84021°
Mean motion
3.74749 °/min
Orbital period
96.06 mins
BSTAR
0.000052935
Loading maneuver chart data...
Computing Atmospheric mass density...
Loading historical data...
Loading historical data...
Loading historical data...
Loading historical data...
Loading historical data...
Loading historical data...
Loading historical data...

Documentation

Showing up to 5 results
|